Location: Forli
(44.2227°N, 12.0407°E)
Time: 23:18:18
(UTC+02:00)

PCSat - Pass Details

Date: 17 April 2026
Orbit: 781 x 790 km, 67.1° (Epoch: 19 May)

Event Time Altitude Azimuth Distance (km) Brightness Sun altitude
Rises 21:54:50 0° 337° (NNW) 3,294 13.8 -19.3°
Reaches altitude 10° 21:59:27 10° 12° (NNE) 2,362 12.4 -20.0°
Maximum altitude 22:00:55 11° 28° (NNE) 2,290 12.1 -20.2°
Drops below altitude 10° 22:02:23 10° 44° (NE) 2,360 12.0 -20.4°
Enters shadow 22:04:13 - 61° (ENE) 2,627 12.1 -20.6°
